Waarnemingen

Advertentie
Mijn weer
Eindhoven, Nederland (6370): temperatuur & dauwpunt: 15.01.2017 18:00:00 - 21.01.2017 18:00:00 (CET)Eindhoven, Nederland (6370): temperatuur 5cm: 15.01.2017 18:00:00 - 21.01.2017 18:00:00 (CET)Eindhoven, Nederland (6370): windsnelheid & windstoten: 15.01.2017 18:00:00 - 21.01.2017 18:00:00 (CET)Eindhoven, Nederland (6370): windrichting: 15.01.2017 18:00:00 - 21.01.2017 18:00:00 (CET)Eindhoven, Nederland (6370): luchtdruk: 15.01.2017 18:00:00 - 21.01.2017 18:00:00 (CET)Eindhoven, Nederland (6370): zicht: 15.01.2017 18:00:00 - 21.01.2017 18:00:00 (CET)Eindhoven, Nederland (6370): neerslag: 15.01.2017 18:00:00 - 21.01.2017 18:00:00 (CET)
Datum & Tijd tt [°C] td [°C] tt 5cm [°C] ff [km/u] ff [kn] fx [km/u] fx [kn] dd ppp [hPa] vv [km] rr [mm]
21.01.2017 18:00:00 1,6 -4,8 -1,8 5 3 14 8 ZO 1028,0 10 0,0
21.01.2017 17:00:00 3,3 -4,5 1,4 9 5 18 10 OZO 1027,8 10 0,0
21.01.2017 16:00:00 4,5 -4,2 3,8 11 6 18 10 O 1027,8 10 0,0
21.01.2017 15:00:00 4,9 -3,7 4,9 11 6 18 10 ZO 1028,1 10 0,0
21.01.2017 14:00:00 4,6 -3,6 5,1 11 6 18 10 O 1028,7 10 0,0
21.01.2017 13:00:00 4,1 -3,3 4,6 13 7 22 12 - 1029,6 10 0,0
21.01.2017 12:00:00 3,1 -2,9 3,4 9 5 18 10 O 1030,3 10 0,0
21.01.2017 11:00:00 1,2 -3,2 1,2 8 4 18 10 O 1030,6 10 0,0
21.01.2017 10:00:00 -0,6 -4,5 -1,5 11 6 18 10 ONO 1030,8 10 0,0
21.01.2017 09:00:00 -1,8 -4,9 -3,6 7 4 11 6 O 1030,8 17 0,0
21.01.2017 08:00:00 -2,0 -5,1 -4,1 8 4 14 8 O 1030,6 10 0,0
21.01.2017 07:00:00 -1,6 -4,7 -3,7 9 5 14 8 ONO 1030,6 10 0,0
21.01.2017 06:00:00 -3,7 -6,0 -6,6 8 4 11 6 NO 1031,0 10 0,0
21.01.2017 05:00:00 -3,1 -6,4 -6,7 8 4 11 6 ONO 1031,5 10 0,0
21.01.2017 04:00:00 -3,0 -6,6 -6,1 8 4 11 6 NO 1031,7 10 0,0
21.01.2017 03:00:00 -2,7 -6,8 -6,2 8 4 11 6 NO 1032,0 10 0,0
21.01.2017 02:00:00 -3,0 -6,8 -5,9 9 5 11 6 NO 1032,2 10 0,0
21.01.2017 01:00:00 -2,8 -6,4 -5,7 9 5 14 8 NO 1032,6 10 0,0
21.01.2017 00:00:00 -1,4 -6,3 -3,6 9 5 14 8 ONO 1032,9 10 0,0
20.01.2017 23:00:00 -0,7 -5,8 -2,5 9 5 18 10 ONO 1033,1 10 0,0
20.01.2017 22:00:00 -1,1 -5,4 -3,3 11 6 18 10 NO 1033,4 10 0,0
20.01.2017 21:00:00 -1,0 -5,3 -3,5 9 5 14 8 NO 1033,5 10 0,0
20.01.2017 20:00:00 0,0 -4,7 -1,9 9 5 14 8 NO 1033,6 10 0,0
20.01.2017 19:00:00 -1,2 -5,1 -3,0 11 6 14 8 NO 1033,4 10 0,0
20.01.2017 18:00:00 0,2 -5,3 -2,8 9 5 11 6 NO 1033,8 10 0,0
20.01.2017 17:00:00 1,9 -5,1 0,2 8 4 14 8 ONO 1033,8 10 0,0
20.01.2017 16:00:00 3,0 -4,8 2,1 11 6 14 8 NO 1033,9 10 0,0
20.01.2017 15:00:00 4,2 -5,0 3,9 9 5 14 8 NO 1034,0 10 0,0
20.01.2017 14:00:00 4,2 -4,7 4,7 11 6 14 8 NO 1034,4 10 0,0
20.01.2017 13:00:00 3,5 -5,8 4,0 8 4 11 6 NO 1034,8 10 0,0
20.01.2017 12:00:00 1,7 -6,1 1,8 8 4 14 8 ONO 1035,3 10 0,0
20.01.2017 11:00:00 -0,3 -6,5 -0,5 9 5 14 8 ONO 1035,7 10 0,0
20.01.2017 10:00:00 -2,1 -5,7 -3,7 5 3 11 6 - 1035,7 10 0,0
20.01.2017 09:00:00 -6,2 -8,3 -9,4 4 2 11 6 - 1035,5 10 0,0
20.01.2017 08:00:00 -5,2 -7,6 -9,1 8 4 11 6 ONO 1035,4 10 0,0
20.01.2017 07:00:00 -6,4 -7,8 -9,4 8 4 7 4 NO 1035,7 10 0,0
20.01.2017 06:00:00 -6,4 -8,1 -8,6 8 4 11 6 NO 1035,7 10 0,0
20.01.2017 05:00:00 -5,9 -7,3 -8,8 5 3 7 4 ONO 1035,8 10 0,0
20.01.2017 04:00:00 -5,8 -7,2 -8,3 5 3 7 4 NO 1035,7 10 0,0
20.01.2017 03:00:00 -5,9 -7,4 -8,1 8 4 7 4 NO 1035,9 9 0,0
20.01.2017 02:00:00 -4,2 -5,8 -8,3 8 4 11 6 NNO 1036,0 9 0,0
20.01.2017 01:00:00 -2,2 -5,4 -7,9 5 3 11 6 O 1036,2 8 0,0
20.01.2017 00:00:00 -3,3 -4,9 -7,0 5 3 11 6 NO 1036,7 7 0,0
19.01.2017 23:00:00 -3,4 -5,1 -6,5 8 4 11 6 NO 1036,9 8 0,0
19.01.2017 22:00:00 -2,7 -4,5 -6,5 5 3 11 6 NO 1037,0 8 0,0
19.01.2017 21:00:00 -2,8 -4,6 -6,2 5 3 7 4 NO 1037,2 8 0,0
19.01.2017 20:00:00 -1,7 -4,3 -5,6 5 3 7 4 NO 1037,2 10 0,0
19.01.2017 19:00:00 -2,2 -4,8 -6,2 5 3 7 4 NNO 1037,1 10 0,0
19.01.2017 18:00:00 -1,2 -5,3 -4,6 4 2 7 4 - 1036,9 10 0,0
19.01.2017 17:00:00 1,7 -5,4 -0,4 8 4 14 8 ONO 1037,0 10 0,0
19.01.2017 16:00:00 2,8 -5,1 2,1 11 6 18 10 ONO 1037,0 10 0,0
19.01.2017 15:00:00 3,2 -5,2 3,0 11 6 18 10 NO 1036,9 10 0,0
19.01.2017 14:00:00 2,9 -5,6 3,3 9 5 14 8 O 1037,3 10 0,0
19.01.2017 13:00:00 1,7 -5,6 2,1 11 6 14 8 O 1037,7 10 0,0
19.01.2017 12:00:00 0,3 -4,6 0,4 9 5 14 8 O 1038,1 10 0,0
19.01.2017 11:00:00 -1,6 -4,5 -1,9 8 4 11 6 NO 1038,6 10 0,0
19.01.2017 10:00:00 -3,2 -4,9 -4,0 5 3 11 6 NO 1038,6 7 0,0
19.01.2017 09:00:00 -6,1 -7,0 -8,0 4 2 11 6 ONO 1038,4 6 0,0
19.01.2017 08:00:00 -7,0 -7,8 -9,2 7 4 7 4 NO 1038,0 5 0,0
19.01.2017 07:00:00 -6,9 -7,5 -9,2 7 4 11 6 NNO 1037,6 7 0,0
19.01.2017 06:00:00 -6,6 -7,3 -8,9 4 2 11 6 ONO 1037,8 3,5 0,0
19.01.2017 05:00:00 -6,5 -7,2 -8,5 5 3 11 6 ONO 1038,2 3,5 0,0
19.01.2017 04:00:00 -5,5 -6,1 -7,6 7 4 7 4 NNO 1038,2 5 0,0
19.01.2017 03:00:00 -5,7 -6,0 -9,0 4 2 7 4 ONO 1038,1 2,7 0,0
19.01.2017 02:00:00 -6,2 -6,7 -8,9 7 4 7 4 NO 1038,2 2,8 0,0
19.01.2017 01:00:00 -5,3 -5,9 -7,5 5 3 11 6 ONO 1038,2 2,9 0,0
19.01.2017 00:00:00 -4,7 -5,3 -7,0 8 4 11 6 NO 1038,4 2,5 0,0
18.01.2017 23:00:00 -4,3 -4,6 -6,7 8 4 11 6 NNO 1038,5 2,5 0,0
18.01.2017 22:00:00 -3,7 -4,3 -6,5 8 4 11 6 NNO 1038,8 2,8 0,0
18.01.2017 21:00:00 -2,9 -4,1 -5,7 5 3 11 6 ONO 1038,7 3,8 0,0
18.01.2017 20:00:00 -1,6 -3,6 -2,5 9 5 11 6 NO 1038,6 4,2 0,0
18.01.2017 19:00:00 -3,6 -5,0 -5,2 9 5 11 6 NNO 1038,8 4,2 0,0
18.01.2017 18:00:00 -1,4 -3,8 -2,3 9 5 14 8 NO 1039,2 4,9 0,0
18.01.2017 17:00:00 -1,3 -3,9 -2,1 11 6 14 8 - 1039,4 4,6 0,0
18.01.2017 16:00:00 -1,1 -3,7 -1,7 11 6 18 10 NO 1039,4 4,6 0,0
18.01.2017 15:00:00 -0,8 -3,8 -0,8 9 5 14 8 NO 1039,5 4,2 0,0
18.01.2017 14:00:00 -1,2 -3,9 -0,9 11 6 14 8 NNO 1039,6 3,7 0,0
18.01.2017 13:00:00 -1,6 -4,0 -1,3 11 6 14 8 NO 1039,9 3,5 0,0
18.01.2017 12:00:00 -2,1 -4,2 -2,0 8 4 14 8 NO 1040,4 2,9 0,0
18.01.2017 11:00:00 -2,8 -4,1 -2,5 9 5 14 8 NO 1040,5 2,3 0,0
18.01.2017 10:00:00 -3,7 -4,8 -4,0 9 5 14 8 ONO 1040,6 2,5 0,0
18.01.2017 09:00:00 -4,0 -5,0 -4,5 5 3 14 8 O 1040,2 2,2 0,0
18.01.2017 08:00:00 -4,0 -4,7 -4,5 5 3 14 8 O 1039,6 2,4 0,0
18.01.2017 07:00:00 -4,2 -4,9 -4,6 8 4 14 8 ONO 1039,6 2,4 0,0
18.01.2017 06:00:00 -4,1 -4,8 -4,6 5 3 11 6 OZO 1039,6 2,3 0,0
18.01.2017 05:00:00 -3,9 -4,6 -4,6 9 5 14 8 ONO 1039,7 2,6 0,0
18.01.2017 04:00:00 -3,8 -4,6 -4,6 9 5 14 8 ONO 1039,7 2,5 0,0
18.01.2017 03:00:00 -3,8 -4,5 -4,6 8 4 14 8 ONO 1039,8 2,5 0,0
18.01.2017 02:00:00 -3,5 -4,1 -4,5 8 4 18 10 O 1040,0 2,4 0,0
18.01.2017 01:00:00 -3,4 -3,9 -3,9 11 6 18 10 ONO 1039,6 2,2 0,0
18.01.2017 00:00:00 -3,5 -3,7 -4,1 15 8 18 10 ONO 1039,8 1,6 0,0
17.01.2017 23:00:00 -4,0 -4,3 -4,5 13 7 18 10 ONO 1039,5 1,3 0,0
17.01.2017 22:00:00 -4,4 -4,9 -8,0 8 4 11 6 ONO 1039,5 1,7 0,0
17.01.2017 21:00:00 -4,9 -5,3 -7,7 8 4 7 4 NNO 1039,3 2,1 0,0
17.01.2017 20:00:00 -4,7 -5,6 -7,1 8 4 11 6 NNO 1039,3 3,2 0,0
17.01.2017 19:00:00 -4,2 -5,2 -6,4 9 5 11 6 NNO 1039,0 3,7 0,0
17.01.2017 18:00:00 -3,5 -5,0 -5,5 8 4 14 8 NNO 1038,6 4,7 0,0
17.01.2017 17:00:00 -1,8 -4,1 -2,7 13 7 14 8 NNO 1038,3 7 0,0
17.01.2017 16:00:00 -0,5 -3,9 -0,9 11 6 14 8 NNO 1038,1 9 0,0
17.01.2017 15:00:00 0,3 -3,8 0,4 8 4 14 8 NNO 1038,1 10 0,0
17.01.2017 14:00:00 0,0 -4,5 0,4 4 2 11 6 - 1037,9 10 0,0
17.01.2017 13:00:00 -0,2 -4,3 0,3 5 3 11 6 ZO 1038,4 10 0,0
17.01.2017 12:00:00 -1,2 -4,7 -0,7 5 3 11 6 O 1038,7 10 0,0
17.01.2017 11:00:00 -2,2 -5,0 -2,6 5 3 14 8 ZO 1038,8 8 0,0
17.01.2017 10:00:00 -2,7 -5,2 -3,2 8 4 14 8 OZO 1038,1 7 0,0
17.01.2017 09:00:00 -3,2 -5,3 -4,2 8 4 18 10 O 1037,4 6 0,0
17.01.2017 08:00:00 -3,4 -5,3 -4,0 8 4 14 8 O 1037,1 5 0,0
17.01.2017 07:00:00 -3,9 -5,2 -4,4 11 6 - - ONO 1036,2 5 0,0
17.01.2017 06:00:00 -4,3 -5,1 -4,7 9 5 18 10 O 1036,1 3,9 0,0
17.01.2017 05:00:00 -4,5 -5,0 -4,8 9 5 18 10 ONO 1035,8 3,1 0,0
17.01.2017 04:00:00 -4,8 -5,3 -5,1 11 6 - - NO 1035,2 2,3 0,0
17.01.2017 03:00:00 -4,3 -4,8 -4,7 11 6 14 8 NO 1034,9 2,8 0,0
17.01.2017 02:00:00 -3,9 -4,3 -4,2 5 3 14 8 NO 1034,4 2,4 0,0
17.01.2017 01:00:00 -3,6 -3,7 -4,0 9 5 18 10 NNO 1034,3 1,1 0,0
17.01.2017 00:00:00 -3,5 -3,6 -3,9 11 6 18 10 NNO 1033,9 1,2 0,0
16.01.2017 23:00:00 -3,0 -3,5 -3,6 15 8 22 12 NNO 1033,3 3,4 0,0
16.01.2017 22:00:00 -4,2 -4,8 -6,9 5 3 11 6 NNO 1032,8 4,0 0,0
16.01.2017 21:00:00 -2,5 -3,4 -3,6 5 3 7 4 NW 1032,1 6 0,0
16.01.2017 20:00:00 -2,0 -2,9 -2,5 4 2 11 6 - 1031,5 8 0,0
16.01.2017 19:00:00 -2,0 -3,5 -2,5 13 7 22 12 NO 1031,0 9 0,0
16.01.2017 18:00:00 -1,6 -2,8 -2,1 9 5 18 10 NO 1030,4 10 0,0
16.01.2017 17:00:00 -1,4 -2,2 -1,7 9 5 18 10 NNO 1029,9 7 0,0
16.01.2017 16:00:00 -1,0 -1,7 -1,3 5 3 14 8 NNO 1029,3 7 0,0
16.01.2017 15:00:00 -0,8 -1,3 -1,0 11 6 14 8 O 1028,8 7 0,0
16.01.2017 14:00:00 -0,4 -1,0 -0,7 4 2 14 8 - 1028,3 7 0,0
16.01.2017 13:00:00 -0,5 -0,6 -0,8 8 4 14 8 ONO 1028,3 4,2 0,0
16.01.2017 12:00:00 -0,8 -0,9 -1,0 11 6 14 8 NNO 1028,0 1,2 0,0
16.01.2017 11:00:00 -0,9 -0,9 -1,1 8 4 14 8 ONO 1027,6 1,3 0,0
16.01.2017 10:00:00 -0,8 -0,8 -1,2 5 3 14 8 O 1027,3 0,3 0,0
16.01.2017 09:00:00 -0,7 -0,7 -1,5 2 1 7 4 - 1026,6 0,4 0,0
16.01.2017 08:00:00 -1,6 -1,6 -2,0 4 2 7 4 - 1025,9 0,2 0,0
16.01.2017 07:00:00 -0,6 -0,7 -1,0 4 2 7 4 - 1025,5 0,2 0,0
16.01.2017 06:00:00 -0,4 -0,4 -1,3 4 2 7 4 - 1024,9 0,3 0,0
16.01.2017 05:00:00 -0,5 -0,6 -1,5 2 1 4 2 NO 1024,6 0,6 0,0
16.01.2017 04:00:00 -0,5 -0,5 -1,6 4 2 4 2 ZW 1024,2 0,7 0,0
16.01.2017 03:00:00 -0,2 -0,3 -1,8 2 1 11 6 WZW 1024,1 1,4 0,0
16.01.2017 02:00:00 -0,3 -0,3 -1,9 2 1 7 4 - 1024,0 1,2 0,0
16.01.2017 01:00:00 -1,4 -1,5 -2,8 4 2 7 4 - 1024,0 1,0 0,0
16.01.2017 00:00:00 -1,5 -1,7 -3,1 4 2 7 4 - 1023,8 1,1 0,0
15.01.2017 23:00:00 -1,8 -1,9 -3,8 4 2 7 4 WZW 1023,8 0,4 0,0
15.01.2017 22:00:00 -0,8 -0,9 -2,7 4 2 7 4 WZW 1023,5 0,5 0,0
15.01.2017 21:00:00 0,3 0,3 -1,1 4 2 7 4 ZW 1023,2 2,4 0,0
15.01.2017 20:00:00 0,5 0,4 -0,9 5 3 11 6 ZW 1022,8 3,1 0,0
15.01.2017 19:00:00 0,3 0,3 -1,2 4 2 14 8 WZW 1022,6 3,3 0,0
15.01.2017 18:00:00 0,6 0,4 -1,5 5 3 22 12 WZW 1022,1 4,1 0,0

tt = temperatuur
td = dauwpunt
tt 5cm = temperatuur 5cm
ff = windsnelheid
fx = windstoten
dd = windrichting
ppp = luchtdruk
vv = zicht
rr = neerslag

Weerstations in de omgeving